Zurück zum Katalog

SL-12 R/B(2)

AktivGEO
NORAD 17939·ROCKET BODY·🇷🇺 Russia

Gestartet Oct 3, 1979 von Baikonur Cosmodrome

Loading…

TLE

AktuellSource: Space-Track

Epoche: Sep 14, 2026, 15:54 UTC

1 17939U 79087C   26257.66263473 -.00000211  00000-0  00000-0 0  9994
2 17939   5.1194 282.4391 0043371 348.4243  42.7520  1.00499399 48349

Verfolge SL-12 R/B(2) in Echtzeit mit AllMySat

Download on the App Store